Wind_Speed
28 28 30 31 34 36 38 39 41 42 44 46 48 49 51 52 54 54 55 55 56 55 55 54 53 53 52 53 52 51 52 52 52 52 50 48 46 43 42 42 43 44 43
31 34 36 38 41 42 44 45 46 47 49 51 53 55 56 56 57 56 55 53 52 52 51 51 50 50 51 51 52 54 54 53 53 52 51 50 49 48 46 44 44 43 43
36 38 41 44 46 47 48 49 49 50 51 51 52 52 54 55 57 57 57 54 51 50 50 50 51 52 51 50 49 50 50 51 51 51 50 50 49 49 49 47 47 45 44
42 44 46 47 48 49 49 49 48 48 50 52 54 55 55 56 58 57 55 52 49 48 47 45 43 45 48 48 50 52 52 50 45 49 46 45 44 43 45 48 49 49 48
47 48 48 49 48 48 48 49 49 49 48 44 38 36 39 42 44 44 43 42 40 36 37 42 46 49 52 55 56 56 57 58 58 55 51 49 45 43 49 47 49 53 50
48 48 47 48 50 50 48 45 38 35 30 33 34 34 31 29 28 29 29 30 33 37 42 47 48 49 52 54 57 59 60 61 61 61 58 54 52 53 55 52 58 48 47
47 49 49 48 43 40 36 33 33 34 35 35 34 34 34 34 33 33 34 37 39 40 40 41 44 48 51 55 59 62 64 64 64 64 63 60 58 58 52 49 63 47 50
45 41 37 34 31 32 33 34 37 36 34 34 33 32 32 31 31 31 32 31 28 28 31 36 41 46 51 46 45 49 53 62 70 68 65 63 64 63 56 47 36 37 30
37 34 32 31 31 32 32 34 33 31 30 29 28 27 26 22 20 19 19 22 25 28 32 34 40 44 34 38 40 42 46 49 56 63 69 66 66 63 58 53 49 53 53
38 35 33 32 32 31 33 28 27 22 22 22 20 13 12 12 13 20 22 24 25 26 31 34 38 27 13 25 25 23 29 35 41 48 56 64 65 62 58 53 42 40 38
43 38 35 32 32 30 30 22 20 20 16 13 14 15 15 14 12 12 19 26 31 30 33 34 35 25 25 24 22 24 22 29 22 29 40 48 55 55 57 51 48 40 24
48 38 33 30 29 28 22 13 10 12 14 15 15 17 18 16 16 16 20 27 32 34 34 32 31 28 25 27 22 16 16 22 18 13 18 15 36 46 45 43 46 57 49
30 28 27 25 23 20 12 8 10 12 14 15 17 18 17 19 21 24 27 29 29 31 32 31 29 28 26 23 20 14 13 16 17 15 7 19 29 26 22 28 32 41 49
18 17 22 24 20 15 13 12 12 14 16 16 16 16 17 20 24 26 26 26 29 28 28 29 30 28 26 26 26 24 14 8 5 12 10 2 26 39 22 14 19 23 31
23 21 23 23 22 17 17 15 15 17 18 18 17 17 20 23 24 23 24 22 23 26 27 27 28 29 28 27 25 24 23 17 10 11 7 12 16 23 31 29 28 30 29
25 24 23 23 22 20 20 19 18 20 20 20 19 19 21 23 21 19 19 22 24 25 26 26 27 28 29 29 29 27 25 22 19 17 12 8 12 21 27 30 29 34 38
23 22 22 22 21 21 22 21 22 23 23 23 23 23 23 22 20 20 20 23 23 25 26 28 29 28 28 27 27 27 26 25 25 23 20 18 15 15 20 26 27 29 32
26 25 24 22 20 23 24 26 27 27 28 27 26 26 25 25 23 23 23 23 23 21 24 23 28 30 31 31 29 26 25 24 24 24 24 24 23 23 23 25 26 29 31
30 31 30 28 27 26 28 31 31 32 32 31 30 28 27 27 27 27 26 26 24 24 26 27 29 29 30 33 33 31 28 26 26 26 27 27 28 30 30 31 31 31 31
33 32 32 32 32 32 34 35 36 37 37 36 34 33 32 32 32 33 32 32 32 31 29 30 32 34 35 35 33 34 34 33 30 28 28 29 30 33 34 35 36 37 38
37 35 35 35 36 37 39 37 36 36 37 38 38 37 36 37 38 39 39 39 39 39 38 39 38 37 39 39 37 35 36 37 38 36 34 33 33 33 34 36 38 39 41
39 38 38 37 38 39 41 41 40 41 42 42 44 43 43 42 42 42 43 44 45 45 45 45 46 45 44 43 41 40 39 39 39 40 41 40 38 36 36 37 38 40 41
43 43 43 43 43 45 46 47 48 47 47 47 49 50 49 49 50 51 50 50 50 50 51 50 49 50 49 48 47 45 43 42 41 41 43 44 44 41 40 40 41 42 42
45 47 49 51 50 50 51 53 55 56 56 56 55 56 56 56 56 57 57 58 57 56 56 55 54 53 51 52 52 51 48 47 46 46 44 45 47 46 43 42 43 44 44
43 45 47 49 50 52 56 58 59 60 60 60 62 63 62 61 61 60 58 59 59 58 57 56 57 57 56 56 55 54 51 50 50 49 49 48 48 49 47 44 45 45 45
45 46 48 51 54 57 60 61 62 64 66 65 66 65 65 66 67 67 64 62 60 60 59 59 60 59 60 60 60 56 53 53 53 51 51 52 52 50 49 48 45 44 44
Wind_Direction
287 285 285 287 287 287 286 285 284 284 284 284 283 282 281 279 278 278 279 279 279 280 279 279 278 278 277 277 277 276 275 274 272 271 270 270 270 270 270 270 269 269 269
282 284 286 287 287 287 287 286 285 285 284 284 283 283 282 281 281 280 279 278 277 276 276 276 276 276 276 275 275 274 273 271 271 270 270 270 270 269 269 270 270 269 269
285 287 288 288 288 289 289 289 288 287 286 285 284 283 282 281 280 279 278 278 277 276 276 275 276 276 275 274 274 274 273 270 269 268 266 266 266 267 267 267 267 268 269
289 289 289 291 291 290 290 289 288 287 286 286 286 284 282 278 276 275 276 276 276 276 276 277 277 276 276 274 275 273 271 270 271 268 267 268 266 264 265 265 263 263 264
292 293 293 292 292 292 292 292 290 288 288 290 294 295 292 286 283 280 279 280 282 283 281 280 279 278 276 275 275 272 269 267 262 261 260 261 261 262 264 268 266 261 262
295 295 295 295 294 294 291 288 289 288 288 292 294 297 301 303 298 291 282 278 283 286 285 286 286 285 282 280 277 275 271 266 264 263 259 257 255 256 255 261 265 263 264
296 297 296 294 292 291 293 293 288 286 290 291 292 292 292 291 291 290 287 286 290 292 290 292 291 289 287 284 279 273 269 266 262 258 256 255 254 253 255 264 260 275 259
300 298 297 295 292 292 291 293 295 296 294 287 288 290 293 293 294 294 293 292 294 299 302 301 299 297 300 295 288 280 273 266 259 257 255 252 252 253 256 265 274 273 259
300 299 295 291 289 297 299 297 300 298 295 289 289 295 299 301 305 307 303 304 312 317 314 317 323 316 312 313 301 289 281 274 264 254 248 250 251 250 251 251 262 269 282
294 290 290 291 290 296 304 300 304 300 296 297 299 303 311 308 305 307 312 317 319 324 323 331 338 324 325 331 343 312 290 283 271 256 248 244 247 252 252 253 262 265 262
292 283 284 288 291 295 305 298 301 305 305 301 300 304 304 304 301 302 304 315 318 320 322 334 345 308 295 294 323 4 328 326 282 260 247 242 243 248 252 251 244 261 236
289 275 275 284 292 298 304 306 304 307 306 303 303 305 305 309 317 316 315 316 316 318 318 325 339 347 325 322 326 339 9 3 342 290 249 234 247 248 254 253 246 246 252
296 267 271 286 296 303 287 283 296 301 299 300 306 306 307 311 317 319 320 319 318 321 318 321 332 345 353 356 341 346 344 18 52 23 331 214 225 247 240 245 255 257 259
322 286 282 290 294 282 264 276 285 295 299 306 310 313 318 320 317 318 321 325 325 322 321 320 326 335 344 354 2 6 3 12 329 9 48 25 227 243 252 244 279 280 265
308 294 289 292 289 264 256 269 282 292 298 302 303 309 316 319 317 322 326 331 334 338 336 330 326 328 333 339 346 353 2 6 337 327 321 229 229 232 245 257 270 264 261
302 297 294 288 279 256 255 265 279 285 291 294 296 299 306 311 314 320 330 336 340 343 342 340 338 333 331 331 332 335 339 345 350 354 349 299 262 255 257 274 272 266 265
302 305 303 293 274 253 254 262 273 279 286 289 291 295 298 302 302 308 316 323 327 333 335 335 337 336 335 331 326 325 324 324 326 327 326 325 313 290 277 276 278 275 266
296 298 298 295 280 265 262 266 273 280 283 283 283 288 292 292 287 294 301 312 319 322 331 335 336 337 338 330 326 321 314 310 308 305 303 302 300 295 291 286 282 279 278
296 292 288 288 285 279 272 272 275 279 281 280 281 283 284 283 280 283 288 293 297 303 311 316 325 329 331 333 326 320 315 310 304 299 296 293 288 285 283 281 280 280 280
288 287 286 284 282 280 278 278 279 280 281 281 281 281 280 278 275 276 279 284 288 291 295 302 308 314 317 319 322 322 317 313 306 302 294 289 286 285 284 284 283 283 281
287 288 288 285 282 280 278 278 278 277 277 278 279 281 281 280 279 277 276 280 284 288 291 295 298 299 303 306 309 310 311 311 311 306 301 300 294 289 287 286 285 285 284
285 286 284 285 284 282 281 279 277 277 277 277 278 279 279 277 276 276 277 279 280 281 283 285 288 291 293 296 298 300 302 302 303 304 302 300 296 292 289 287 286 285 283
284 282 281 279 279 281 279 279 279 279 278 277 278 278 278 278 278 279 279 279 279 280 280 279 281 284 286 289 292 292 293 294 296 298 297 297 297 292 290 288 286 284 282
288 286 286 284 282 279 277 278 278 278 278 278 277 276 275 276 276 276 276 277 278 278 277 278 280 279 280 285 286 286 287 289 289 294 291 292 292 292 289 288 290 286 284
292 291 290 287 284 282 280 278 277 276 276 276 277 277 276 276 275 275 275 275 275 275 275 276 276 276 278 277 278 280 282 284 285 286 290 290 289 289 289 290 289 288 286
294 294 294 292 290 289 286 282 279 277 276 275 276 276 276 277 276 275 274 274 273 272 272 272 271 273 275 275 277 279 278 282 282 283 285 289 288 287 290 292 290 289 288
Height
5829 5827 5825 5824 5821 5819 5817 5815 5813 5810 5808 5805 5802 5800 5797 5794 5792 5790 5788 5786 5784 5782 5781 5779 5777 5776 5775 5774 5774 5773 5772 5772 5772 5773 5773 5773 5773 5774 5774 5774 5775 5775 5776
5823 5821 5819 5817 5814 5811 5808 5806 5804 5801 5798 5795 5791 5788 5785 5782 5780 5777 5776 5774 5772 5771 5769 5767 5766 5764 5763 5762 5762 5760 5760 5759 5760 5761 5761 5762 5762 5763 5764 5764 5765 5765 5766
5817 5815 5812 5808 5805 5802 5799 5796 5792 5790 5786 5783 5780 5776 5772 5769 5767 5764 5763 5762 5761 5759 5758 5757 5755 5754 5752 5750 5749 5748 5747 5747 5748 5748 5749 5750 5750 5752 5752 5752 5753 5754 5756
5808 5805 5802 5799 5795 5792 5788 5785 5781 5778 5775 5771 5768 5764 5760 5756 5753 5751 5750 5749 5749 5748 5746 5745 5745 5744 5742 5740 5739 5737 5736 5736 5734 5737 5738 5738 5739 5740 5740 5740 5741 5741 5743
5800 5796 5792 5788 5785 5781 5777 5774 5769 5766 5762 5759 5756 5752 5748 5744 5741 5739 5739 5738 5739 5739 5739 5738 5736 5733 5730 5727 5725 5723 5723 5722 5723 5723 5725 5726 5728 5729 5723 5730 5731 5731 5733
5790 5786 5782 5778 5774 5770 5766 5762 5758 5756 5754 5752 5749 5746 5742 5739 5735 5733 5732 5731 5731 5731 5729 5728 5725 5721 5717 5714 5711 5708 5706 5706 5706 5707 5710 5713 5714 5715 5716 5712 5718 5719 5721
5781 5777 5772 5768 5764 5760 5757 5754 5751 5749 5747 5745 5742 5739 5737 5734 5731 5729 5727 5726 5725 5723 5720 5718 5714 5709 5703 5698 5693 5689 5686 5685 5686 5688 5692 5697 5700 5701 5696 5696 5706 5709 5710
5771 5767 5763 5759 5757 5754 5751 5747 5744 5741 5739 5737 5735 5733 5731 5728 5725 5722 5720 5719 5718 5717 5713 5708 5703 5697 5689 5682 5676 5670 5666 5665 5666 5670 5674 5679 5683 5686 5692 5693 5696 5698 5696
5763 5760 5756 5753 5750 5747 5744 5740 5737 5734 5731 5730 5729 5727 5724 5721 5719 5716 5715 5714 5712 5710 5705 5701 5694 5684 5677 5671 5662 5655 5651 5647 5645 5647 5655 5662 5667 5674 5682 5688 5690 5692 5694
5755 5752 5749 5746 5743 5740 5737 5733 5731 5728 5726 5724 5724 5722 5721 5719 5717 5713 5710 5708 5707 5704 5699 5693 5685 5678 5672 5665 5656 5648 5640 5633 5627 5629 5636 5644 5653 5660 5670 5678 5685 5684 5683
5744 5742 5741 5739 5737 5734 5731 5727 5725 5723 5722 5721 5720 5718 5717 5715 5715 5713 5708 5703 5700 5698 5692 5687 5680 5672 5665 5657 5652 5643 5635 5625 5615 5616 5621 5632 5643 5651 5658 5669 5674 5674 5672
5730 5731 5732 5732 5730 5728 5725 5722 5721 5721 5719 5718 5717 5714 5712 5711 5709 5708 5706 5701 5696 5691 5685 5681 5676 5669 5661 5654 5647 5641 5634 5627 5616 5614 5619 5632 5635 5643 5653 5660 5666 5668 5669
5718 5720 5724 5725 5724 5722 5721 5719 5718 5718 5716 5715 5713 5711 5709 5706 5704 5701 5699 5695 5690 5685 5680 5675 5671 5666 5659 5652 5645 5640 5635 5632 5626 5622 5623 5631 5632 5641 5643 5650 5656 5660 5663
5720 5719 5720 5720 5719 5718 5717 5716 5715 5714 5713 5711 5709 5706 5704 5701 5698 5696 5692 5689 5683 5680 5676 5671 5666 5662 5657 5651 5645 5639 5635 5633 5630 5628 5628 5633 5638 5640 5643 5647 5651 5652 5653
5721 5719 5717 5715 5713 5712 5712 5712 5711 5710 5709 5707 5705 5702 5699 5696 5693 5691 5688 5685 5681 5676 5671 5668 5663 5658 5653 5649 5645 5641 5637 5634 5632 5631 5632 5636 5637 5638 5638 5640 5642 5642 5641
5718 5715 5712 5709 5707 5707 5707 5707 5706 5705 5704 5702 5699 5696 5694 5691 5688 5686 5684 5681 5678 5674 5670 5665 5660 5655 5651 5646 5642 5639 5636 5634 5633 5631 5631 5631 5632 5634 5634 5634 5635 5636 5637
5713 5710 5708 5705 5702 5701 5701 5701 5700 5699 5697 5695 5693 5691 5688 5686 5683 5681 5678 5675 5673 5670 5667 5662 5658 5654 5649 5644 5640 5637 5634 5632 5629 5628 5628 5627 5628 5628 5629 5629 5629 5630 5629
5708 5706 5704 5701 5698 5697 5696 5695 5693 5692 5690 5688 5686 5684 5682 5680 5678 5675 5673 5670 5668 5665 5662 5658 5655 5651 5647 5643 5639 5635 5632 5629 5628 5627 5625 5624 5623 5623 5622 5621 5620 5618 5617
5701 5699 5698 5696 5694 5692 5690 5688 5686 5684 5682 5680 5679 5677 5674 5672 5670 5668 5666 5663 5661 5659 5657 5654 5650 5647 5643 5640 5636 5632 5629 5626 5623 5621 5620 5620 5618 5617 5616 5614 5612 5611 5610
5693 5690 5689 5689 5687 5685 5682 5680 5679 5677 5675 5673 5671 5669 5666 5664 5661 5660 5657 5655 5653 5651 5649 5646 5644 5641 5638 5634 5631 5628 5625 5622 5619 5617 5614 5611 5610 5608 5608 5606 5605 5603 5601
5684 5682 5681 5679 5676 5675 5672 5670 5669 5667 5665 5662 5661 5659 5658 5656 5654 5651 5648 5646 5644 5642 5640 5638 5635 5632 5630 5627 5624 5621 5618 5615 5612 5610 5606 5604 5602 5599 5597 5595 5593 5592 5590
5673 5672 5670 5668 5666 5665 5662 5659 5658 5656 5654 5652 5650 5648 5646 5644 5642 5640 5638 5635 5633 5630 5628 5627 5624 5622 5620 5617 5614 5612 5609 5607 5604 5601 5597 5594 5591 5589 5586 5584 5582 5580 5578
5661 5659 5657 5655 5654 5652 5649 5647 5645 5644 5642 5640 5638 5635 5634 5632 5630 5629 5627 5625 5622 5620 5616 5614 5612 5610 5608 5606 5604 5602 5599 5596 5594 5590 5587 5584 5581 5578 5575 5573 5570 5567 5565
5649 5647 5645 5643 5641 5639 5636 5633 5631 5629 5627 5625 5623 5621 5618 5616 5615 5613 5611 5609 5607 5606 5603 5601 5600 5597 5595 5594 5591 5590 5588 5586 5582 5579 5575 5572 5569 5567 5564 5561 5558 5555 5552
5637 5633 5630 5627 5624 5622 5620 5617 5615 5613 5612 5609 5606 5604 5602 5600 5597 5595 5594 5592 5591 5588 5586 5586 5584 5583 5581 5579 5577 5575 5574 5573 5570 5567 5564 5560 5557 5554 5551 5548 5545 5542 5539
5624 5620 5617 5613 5609 5606 5602 5600 5597 5595 5594 5591 5588 5586 5584 5581 5579 5577 5576 5574 5573 5570 5570 5568 5566 5565 5564 5562 5561 5561 5558 5557 5555 5553 5550 5548 5544 5542 5540 5536 5533 5530 5527